• In Kazakhstan
  • List of Countries
  • For 7 days
  • Water Temperature
  • Weather Map
  • News
  • Weather Widgets
  • user-avatar
    Login

    Hourly Weather Pobikry

    Today, 23 September, Monday

    Time Temperature Precipitation Wind Pressure Humidity
    00:00 +11°C° 0 mm 3 mps 749 mmHg 90%
    01:00 +10°C° 0 mm 3 mps 750 mmHg 92%
    02:00 +10°C° 0 mm 4 mps 750 mmHg 93%
    03:00 +10°C° 0 mm 4 mps 750 mmHg 89%
    04:00 +8°C° 0 mm 4 mps 750 mmHg 84%
    05:00 +8°C° 0 mm 5 mps 750 mmHg 79%
    06:00 +8°C° 0 mm 5 mps 751 mmHg 77%
    07:00 +8°C° 0 mm 5 mps 751 mmHg 75%
    08:00 +8°C° 0 mm 5 mps 751 mmHg 73%
    09:00 +9°C° 0 mm 5 mps 752 mmHg 71%
    10:00 +9°C° 0 mm 5 mps 752 mmHg 68%
    11:00 +10°C° 0 mm 5 mps 752 mmHg 66%
    12:00 +12°C° 0 mm 5 mps 752 mmHg 63%
    13:00 +13°C° 0 mm 5 mps 752 mmHg 61%
    14:00 +14°C° 0 mm 5 mps 752 mmHg 58%
    15:00 +13°C° 0 mm 4 mps 751 mmHg 59%
    16:00 +13°C° 0 mm 4 mps 751 mmHg 59%
    17:00 +13°C° 0 mm 4 mps 751 mmHg 59%
    18:00 +11°C° 0 mm 4 mps 751 mmHg 62%
    19:00 +10°C° 0 mm 4 mps 751 mmHg 65%
    20:00 +7°C° 0 mm 4 mps 752 mmHg 68%
    21:00 +7°C° 0 mm 4 mps 752 mmHg 68%
    22:00 +7°C° 0 mm 3 mps 752 mmHg 67%
    23:00 +5°C° 0 mm 3 mps 752 mmHg 67%

    Tomorrow, 24 September, Tuesday

    Time Temperature Precipitation Wind Pressure Humidity
    00:00 +5°C° 0 mm 3 mps 752 mmHg 67%
    01:00 +4°C° 0 mm 3 mps 752 mmHg 67%
    02:00 +4°C° 0 mm 3 mps 752 mmHg 67%
    03:00 +4°C° 0 mm 3 mps 752 mmHg 68%
    04:00 +3°C° 0 mm 3 mps 752 mmHg 69%
    05:00 +3°C° 0 mm 3 mps 751 mmHg 70%
    06:00 +4°C° 0 mm 3 mps 751 mmHg 68%
    07:00 +5°C° 0 mm 3 mps 751 mmHg 65%
    08:00 +5°C° 0 mm 4 mps 751 mmHg 63%
    09:00 +7°C° 0 mm 4 mps 751 mmHg 59%
    10:00 +10°C° 0 mm 4 mps 751 mmHg 55%
    11:00 +12°C° 0 mm 3 mps 751 mmHg 52%
    12:00 +13°C° 0 mm 3 mps 751 mmHg 50%
    13:00 +14°C° 0 mm 3 mps 750 mmHg 49%
    14:00 +16°C° 0 mm 3 mps 750 mmHg 47%
    15:00 +16°C° 0 mm 2 mps 749 mmHg 49%
    16:00 +16°C° 0 mm 2 mps 749 mmHg 51%
    17:00 +16°C° 0 mm 2 mps 749 mmHg 53%
    18:00 +14°C° 0 mm 2 mps 749 mmHg 58%
    19:00 +11°C° 0 mm 3 mps 749 mmHg 63%
    20:00 +9°C° 0 mm 3 mps 749 mmHg 68%
    21:00 +9°C° 0 mm 3 mps 749 mmHg 70%
    22:00 +8°C° 0 mm 3 mps 749 mmHg 72%
    23:00 +7°C° 0 mm 3 mps 749 mmHg 73%

    Day after tomorrow, 25 September, Wednesday

    Time Temperature Precipitation Wind Pressure Humidity
    00:00 +7°C° 0 mm 3 mps 748 mmHg 76%
    01:00 +7°C° 0 mm 3 mps 748 mmHg 78%
    02:00 +7°C° 0 mm 3 mps 748 mmHg 80%
    03:00 +7°C° 0 mm 3 mps 748 mmHg 80%
    04:00 +7°C° 0 mm 3 mps 748 mmHg 80%
    05:00 +7°C° 0 mm 3 mps 747 mmHg 81%
    06:00 +7°C° 0 mm 3 mps 747 mmHg 78%
    07:00 +8°C° 0 mm 3 mps 747 mmHg 75%
    08:00 +8°C° 0 mm 4 mps 747 mmHg 72%
    09:00 +10°C° 0 mm 4 mps 747 mmHg 68%
    10:00 +12°C° 0 mm 4 mps 746 mmHg 64%
    11:00 +13°C° 0 mm 4 mps 746 mmHg 60%
    12:00 +14°C° 0 mm 4 mps 746 mmHg 58%
    13:00 +17°C° 0 mm 4 mps 746 mmHg 57%
    14:00 +18°C° 0 mm 4 mps 745 mmHg 55%
    15:00 +18°C° 0 mm 4 mps 745 mmHg 58%
    16:00 +18°C° 0 mm 3 mps 745 mmHg 60%
    17:00 +17°C° 0 mm 3 mps 744 mmHg 63%
    18:00 +16°C° 0 mm 3 mps 744 mmHg 66%
    19:00 +14°C° 0 mm 3 mps 744 mmHg 69%
    20:00 +14°C° 0 mm 3 mps 744 mmHg 73%
    21:00 +13°C° 0.1 mm 3 mps 744 mmHg 76%
    22:00 +14°C° 0.1 mm 2 mps 744 mmHg 78%
    23:00 +14°C° 0.1 mm 2 mps 744 mmHg 81%

    26 September, Thursday

    Time Temperature Precipitation Wind Pressure Humidity
    00:00 +13°C° 0.6 mm 2 mps 744 mmHg 85%
    01:00 +13°C° 0.6 mm 2 mps 744 mmHg 89%
    02:00 +13°C° 0.6 mm 2 mps 744 mmHg 93%
    03:00 +13°C° 0.2 mm 2 mps 743 mmHg 94%
    04:00 +13°C° 0.2 mm 2 mps 743 mmHg 95%
    05:00 +13°C° 0.2 mm 2 mps 743 mmHg 96%
    06:00 +13°C° 0.2 mm 2 mps 744 mmHg 95%
    07:00 +13°C° 0.2 mm 2 mps 744 mmHg 95%
    08:00 +14°C° 0.2 mm 2 mps 744 mmHg 94%
    09:00 +14°C° 0 mm 2 mps 744 mmHg 92%
    10:00 +14°C° 0 mm 3 mps 744 mmHg 90%
    11:00 +14°C° 0 mm 3 mps 745 mmHg 88%
    12:00 +14°C° 0.1 mm 3 mps 745 mmHg 87%
    13:00 +14°C° 0.1 mm 3 mps 745 mmHg 87%
    14:00 +14°C° 0.1 mm 3 mps 745 mmHg 87%
    15:00 +14°C° 0.2 mm 3 mps 745 mmHg 87%
    16:00 +14°C° 0.2 mm 3 mps 745 mmHg 87%
    17:00 +14°C° 0.2 mm 3 mps 746 mmHg 87%
    18:00 +14°C° 0 mm 2 mps 746 mmHg 89%
    19:00 +13°C° 0 mm 2 mps 746 mmHg 92%
    20:00 +12°C° 0 mm 2 mps 747 mmHg 94%
    21:00 +11°C° 0 mm 1 mps 747 mmHg 95%
    22:00 +11°C° 0 mm 1 mps 747 mmHg 95%
    23:00 +10°C° 0 mm 1 mps 747 mmHg 96%

    27 September, Friday

    Time Temperature Precipitation Wind Pressure Humidity
    00:00 +10°C° 0 mm 1 mps 748 mmHg 96%
    01:00 +10°C° 0 mm 1 mps 748 mmHg 96%
    02:00 +10°C° 0 mm 1 mps 748 mmHg 95%
    03:00 +10°C° 0 mm 1 mps 748 mmHg 95%
    04:00 +10°C° 0 mm 1 mps 748 mmHg 95%
    05:00 +9°C° 0 mm 1 mps 748 mmHg 95%
    06:00 +10°C° 0 mm 1 mps 748 mmHg 93%
    07:00 +10°C° 0 mm 1 mps 748 mmHg 92%
    08:00 +11°C° 0 mm 1 mps 749 mmHg 90%
    09:00 +12°C° 0 mm 1 mps 749 mmHg 86%
    10:00 +13°C° 0 mm 1 mps 749 mmHg 82%
    11:00 +15°C° 0 mm 1 mps 749 mmHg 78%
    12:00 +16°C° 0 mm 1 mps 749 mmHg 73%
    13:00 +18°C° 0 mm 1 mps 749 mmHg 69%
    14:00 +18°C° 0 mm 2 mps 749 mmHg 65%
    15:00 +19°C° 0 mm 1 mps 749 mmHg 66%
    16:00 +19°C° 0 mm 1 mps 748 mmHg 68%
    17:00 +19°C° 0 mm 1 mps 748 mmHg 69%
    18:00 +17°C° 0 mm 2 mps 748 mmHg 73%
    19:00 +16°C° 0 mm 2 mps 748 mmHg 77%
    20:00 +14°C° 0 mm 3 mps 748 mmHg 81%
    21:00 +14°C° 0 mm 3 mps 749 mmHg 80%
    22:00 +14°C° 0 mm 3 mps 749 mmHg 80%
    23:00 +14°C° 0 mm 4 mps 749 mmHg 79%

    28 September, Saturday

    Time Temperature Precipitation Wind Pressure Humidity
    00:00 +14°C° 0.2 mm 4 mps 748 mmHg 82%
    01:00 +13°C° 0.2 mm 4 mps 748 mmHg 85%
    02:00 +13°C° 0.2 mm 3 mps 748 mmHg 88%
    03:00 +13°C° 0.1 mm 4 mps 748 mmHg 88%
    04:00 +13°C° 0.1 mm 4 mps 747 mmHg 89%
    05:00 +13°C° 0.1 mm 4 mps 747 mmHg 89%
    06:00 +13°C° 0.1 mm 4 mps 747 mmHg 88%
    07:00 +14°C° 0.1 mm 5 mps 747 mmHg 87%
    08:00 +14°C° 0.1 mm 5 mps 747 mmHg 86%
    09:00 +16°C° 0 mm 5 mps 747 mmHg 81%
    10:00 +18°C° 0 mm 4 mps 747 mmHg 76%
    11:00 +19°C° 0 mm 4 mps 747 mmHg 71%
    12:00 +19°C° 0.2 mm 4 mps 747 mmHg 73%
    13:00 +18°C° 0.2 mm 3 mps 746 mmHg 76%
    14:00 +18°C° 0.2 mm 3 mps 746 mmHg 79%
    15:00 +17°C° 1.2 mm 4 mps 746 mmHg 83%
    16:00 +15°C° 1.2 mm 4 mps 746 mmHg 88%
    17:00 +15°C° 1.2 mm 4 mps 745 mmHg 92%
    18:00 +14°C° 0.1 mm 4 mps 745 mmHg 93%
    19:00 +14°C° 0.1 mm 4 mps 745 mmHg 93%
    20:00 +14°C° 0.1 mm 4 mps 745 mmHg 94%
    21:00 +13°C° 0 mm 4 mps 745 mmHg 94%
    22:00 +13°C° 0 mm 4 mps 745 mmHg 94%
    23:00 +12°C° 0 mm 3 mps 745 mmHg 93%
    Show more